Time,TemperatureF,DewpointF,PressureIn,WindDirection,WindDirectionDegrees,WindSpeedMPH,WindSpeedGustMPH,Humidity,HourlyPrecipIn,Conditions,Clouds,dailyrainin,SoftwareType,DateUTC
2013-09-30 00:00:00,50.0,-99.9,-100.00,South,185,0.0,2.0,-999,-99.99,,,-99.99,,2013-09-30 06:00:00,
2013-09-30 00:52:00,50.0,-99.9,-100.00,South,185,0.0,2.0,-999,-99.99,,,-99.99,,2013-09-30 06:52:00,
2013-09-30 01:00:00,46.0,-99.9,-100.00,South,185,3.0,3.0,-999,-99.99,,,-99.99,,2013-09-30 07:00:00,
2013-09-30 01:53:00,46.0,-99.9,-100.00,South,185,3.0,3.0,-999,-99.99,,,-99.99,,2013-09-30 07:53:00,
2013-09-30 03:00:00,42.0,-99.9,-100.00,South,185,1.0,5.0,-999,-99.99,,,-99.99,,2013-09-30 09:00:00,
2013-09-30 03:54:00,42.0,-99.9,-100.00,South,185,1.0,5.0,-999,-99.99,,,-99.99,,2013-09-30 09:54:00,
2013-09-30 04:00:00,42.0,-99.9,-100.00,South,185,5.0,7.0,-999,-99.99,,,-99.99,,2013-09-30 10:00:00,
2013-09-30 04:53:00,42.0,-99.9,-100.00,South,185,5.0,7.0,-999,-99.99,,,-99.99,,2013-09-30 10:53:00,
2013-09-30 05:00:00,41.0,-99.9,-100.00,South,185,1.0,6.0,-999,-99.99,,,-99.99,,2013-09-30 11:00:00,
2013-09-30 05:52:00,41.0,-99.9,-100.00,South,185,1.0,6.0,-999,-99.99,,,-99.99,,2013-09-30 11:52:00,
2013-09-30 06:00:00,42.0,-99.9,-100.00,South,185,3.0,4.0,-999,-99.99,,,-99.99,,2013-09-30 12:00:00,
2013-09-30 06:52:00,42.0,-99.9,-100.00,South,185,3.0,4.0,-999,-99.99,,,-99.99,,2013-09-30 12:52:00,
2013-09-30 07:00:00,39.0,-99.9,-100.00,South,185,9.0,10.0,-999,-99.99,,,-99.99,,2013-09-30 13:00:00,
2013-09-30 07:52:00,39.0,-99.9,-100.00,South,185,9.0,10.0,-999,-99.99,,,-99.99,,2013-09-30 13:52:00,
2013-09-30 08:00:00,42.0,-99.9,-100.00,South,185,6.0,12.0,-999,-99.99,,,-99.99,,2013-09-30 14:00:00,
2013-09-30 08:53:00,42.0,-99.9,-100.00,South,185,6.0,12.0,-999,-99.99,,,-99.99,,2013-09-30 14:53:00,
2013-09-30 09:00:00,51.0,-99.9,-100.00,South,185,8.0,11.0,-999,-99.99,,,-99.99,,2013-09-30 15:00:00,
2013-09-30 09:54:00,51.0,-99.9,-100.00,South,185,8.0,11.0,-999,-99.99,,,-99.99,,2013-09-30 15:54:00,
2013-09-30 10:00:00,59.0,-99.9,-100.00,South,185,7.0,11.0,-999,-99.99,,,-99.99,,2013-09-30 16:00:00,
2013-09-30 10:54:00,59.0,-99.9,-100.00,South,185,7.0,11.0,-999,-99.99,,,-99.99,,2013-09-30 16:54:00,
2013-09-30 11:00:00,68.0,-99.9,-100.00,South,185,9.0,10.0,-999,-99.99,,,-99.99,,2013-09-30 17:00:00,
2013-09-30 11:53:00,68.0,-99.9,-100.00,South,185,9.0,10.0,-999,-99.99,,,-99.99,,2013-09-30 17:53:00,
2013-09-30 12:00:00,77.0,-99.9,-100.00,SW,227,8.0,8.0,-999,-99.99,,,-99.99,,2013-09-30 18:00:00,
2013-09-30 12:22:00,71.0,-99.9,-100.00,South,185,7.0,8.0,-999,-99.99,,,-99.99,,2013-09-30 18:22:00,
2013-09-30 12:32:00,71.0,-99.9,-100.00,South,185,7.0,8.0,-999,-99.99,,,-99.99,,2013-09-30 18:32:00,
2013-09-30 12:54:00,77.0,-99.9,-100.00,SW,227,8.0,8.0,-999,-99.99,,,-99.99,,2013-09-30 18:54:00,
2013-09-30 13:00:00,80.0,-99.9,-100.00,NE,47,11.0,16.0,-999,-99.99,,,-99.99,,2013-09-30 19:00:00,
2013-09-30 13:53:00,80.0,-99.9,-100.00,NE,47,11.0,16.0,-999,-99.99,,,-99.99,,2013-09-30 19:53:00,
2013-09-30 14:00:00,82.0,-99.9,-100.00,SW,227,3.0,17.0,-999,-99.99,,,-99.99,,2013-09-30 20:00:00,
2013-09-30 14:53:00,82.0,-99.9,-100.00,SW,227,3.0,17.0,-999,-99.99,,,-99.99,,2013-09-30 20:53:00,
2013-09-30 15:00:00,82.0,-99.9,-100.00,SW,227,12.0,19.0,-999,-99.99,,,-99.99,,2013-09-30 21:00:00,
2013-09-30 15:54:00,82.0,-99.9,-100.00,SW,227,12.0,19.0,-999,-99.99,,,-99.99,,2013-09-30 21:54:00,
2013-09-30 16:00:00,84.0,-99.9,-100.00,SW,226,7.0,21.0,-999,-99.99,,,-99.99,,2013-09-30 22:00:00,
2013-09-30 16:54:00,84.0,-99.9,-100.00,SW,226,7.0,21.0,-999,-99.99,,,-99.99,,2013-09-30 22:54:00,
2013-09-30 17:00:00,82.0,-99.9,-100.00,SW,226,6.0,15.0,-999,-99.99,,,-99.99,,2013-09-30 23:00:00,
2013-09-30 17:54:00,82.0,-99.9,-100.00,SW,226,6.0,15.0,-999,-99.99,,,-99.99,,2013-09-30 23:54:00,
2013-09-30 18:00:00,78.0,-99.9,-100.00,South,185,4.0,6.0,-999,-99.99,,,-99.99,,2013-10-01 00:00:00,
2013-09-30 18:52:00,78.0,-99.9,-100.00,South,185,4.0,6.0,-999,-99.99,,,-99.99,,2013-10-01 00:52:00,
2013-09-30 19:00:00,68.0,-99.9,-100.00,South,185,0.0,9.0,-999,-99.99,,,-99.99,,2013-10-01 01:00:00,
2013-09-30 19:52:00,68.0,-99.9,-100.00,South,185,0.0,9.0,-999,-99.99,,,-99.99,,2013-10-01 01:52:00,
2013-09-30 20:00:00,66.0,-99.9,-100.00,South,185,0.0,4.0,-999,-99.99,,,-99.99,,2013-10-01 02:00:00,
2013-09-30 20:52:00,66.0,-99.9,-100.00,South,185,0.0,4.0,-999,-99.99,,,-99.99,,2013-10-01 02:52:00,
2013-09-30 21:00:00,62.0,-99.9,-100.00,South,185,1.0,3.0,-999,-99.99,,,-99.99,,2013-10-01 03:00:00,
2013-09-30 21:55:00,62.0,-99.9,-100.00,South,185,1.0,3.0,-999,-99.99,,,-99.99,,2013-10-01 03:55:00,